Lewistown, MT

6:04 PM MDT on August 16, 2017 (GMT -0600)
Lewistown Municipal

Weather History for KLWT - September, 2014

Change the Weather History Date:

Monday, September 15, 2014

  Actual Average Record
Temperature  
Mean Temperature 56 °F 55 °F  
Max Temperature 76 °F 69 °F 93 °F (1908)
Min Temperature 35 °F 41 °F 23 °F (1916)
Degree Days  
Heating Degree Days 9 10  
Month to date heating degree days 198 120  
Since 1 July heating degree days 279 278  
Cooling Degree Days 0 0  
Month to date cooling degree days 0 13  
Year to date cooling degree days 281 209  
Growing Degree Days 6 (Base 50)    
Moisture  
Dew Point 37 °F    
Average Humidity 56    
Maximum Humidity 85    
Minimum Humidity 27    
Precipitation  
Precipitation 0.00 in 0.04 in 0.75 in (1945)
Month to date precipitation 0.33 0.70  
Year to date precipitation 15.41 13.70  
Snow  
Snow 0.00 in - - ()
Snow Depth 0.00 in    
Sea Level Pressure  
Sea Level Pressure 30.10 in    
Wind  
Wind Speed 5 mph (ESE)    
Max Wind Speed 10 mph    
Max Gust Speed 13 mph    
Visibility 10 miles    
Events      
T = Trace of Precipitation, MM = Missing Value Source: NWS Daily Summary

Daily Weather History Graph

Daily Weather History Graph

Search for Another Location

Airport or City:

Trip Planner

Search our weather history database for the weather conditions in past years. The results will help you decide how hot, cold, wet, or windy it might be!

Date:

Astronomy

Sep. 15, 2014 Rise Set
Actual Time 6:55 AM MDT 7:29 PM MDT
Civil Twilight 6:24 AM MDT 8:00 PM MDT
Nautical Twilight 5:48 AM MDT 8:36 PM MDT
Astronomical Twilight 5:10 AM MDT 9:14 PM MDT
Moon 11:52 PM MDT (9/15) 2:21 PM MDT (9/15)
Length of Visible Light 13h 35m
Length of Day
12h 34m
Waning Gibbous, 53% of the Moon is Illuminated
Sep 15
Waning Gibbous
Sep 15
Last Quarter
Sep 24
New
Oct 1
First Quarter
Oct 8
Full

Hourly Weather History & Observations

Time (MDT) Temp. Windchill Dew Point Humidity Pressure Visibility Wind Dir Wind Speed Gust Speed Precip Events Conditions
12:54 AM 39.0 °F 34.8 °F 33.1 °F 79% 30.22 in 10.0 mi ESE 5.8 mph - N/A   Clear
1:54 AM 37.9 °F 32.1 °F 33.1 °F 83% 30.21 in 10.0 mi ESE 8.1 mph - N/A   Clear
2:54 AM 37.9 °F 32.1 °F 33.1 °F 83% 30.19 in 10.0 mi SE 8.1 mph - N/A   Clear
3:54 AM 37.9 °F 32.7 °F 32.0 °F 79% 30.18 in 10.0 mi ESE 6.9 mph - N/A   Clear
4:54 AM 36.0 °F 31.1 °F 30.9 °F 82% 30.17 in 10.0 mi SE 5.8 mph - N/A   Clear
5:54 AM 36.0 °F 29.6 °F 30.9 °F 82% 30.18 in 10.0 mi ESE 8.1 mph - N/A   Clear
6:54 AM 36.0 °F 29.6 °F 30.9 °F 82% 30.17 in 10.0 mi ESE 8.1 mph - N/A   Clear
7:54 AM 42.1 °F 39.2 °F 34.0 °F 73% 30.16 in 10.0 mi South 4.6 mph - N/A   Clear
8:54 AM 48.9 °F - 37.9 °F 66% 30.15 in 10.0 mi SE 4.6 mph - N/A   Clear
9:54 AM 60.1 °F - 37.9 °F 44% 30.12 in 10.0 mi Calm Calm - N/A   Clear
10:54 AM 64.9 °F - 37.9 °F 37% 30.10 in 10.0 mi SE 4.6 mph - N/A   Clear
11:54 AM 68.0 °F - 36.0 °F 31% 30.08 in 10.0 mi NE 5.8 mph - N/A   Clear
12:54 PM 70.0 °F - 37.0 °F 30% 30.06 in 10.0 mi ENE 3.5 mph - N/A   Clear
1:54 PM 72.0 °F - 39.0 °F 30% 30.05 in 10.0 mi NNE 8.1 mph - N/A   Clear
2:54 PM 73.9 °F - 37.9 °F 27% 30.03 in 10.0 mi Variable 4.6 mph - N/A   Clear
3:54 PM 75.0 °F - 39.9 °F 28% 30.02 in 10.0 mi Variable 3.5 mph - N/A   Clear
4:54 PM 75.0 °F - 39.9 °F 28% 30.02 in 10.0 mi North 5.8 mph - N/A   Clear
5:54 PM 73.9 °F - 42.1 °F 32% 30.02 in 10.0 mi North 4.6 mph - N/A   Clear
6:54 PM 72.0 °F - 42.1 °F 34% 30.03 in 10.0 mi Calm Calm - N/A   Clear
7:54 PM 62.1 °F - 45.0 °F 53% 30.04 in 10.0 mi Calm Calm - N/A   Clear
8:54 PM 54.0 °F - 44.1 °F 69% 30.05 in 10.0 mi ESE 5.8 mph - N/A   Clear
9:54 PM 52.0 °F - 43.0 °F 71% 30.02 in 10.0 mi ESE 6.9 mph - N/A   Clear
11:54 PM 46.9 °F - 39.9 °F 77% 30.01 in 10.0 mi SE 6.9 mph - N/A   Clear